Weather History for Jefferson City, MO

Change the Weather History Date:

Monday, September 30, 2013

  Actual Average Record
Temperature  
Mean Temperature 60 °F -  
Max Temperature 75 °F 78 °F 93 °F (1952)
Min Temperature 46 °F 49 °F 29 °F (1949)
Degree Days  
Heating Degree Days 4    
Growing Degree Days 10 (Base 50)    
Moisture  
Dew Point 55 °F    
Average Humidity 87    
Maximum Humidity 100    
Minimum Humidity 58    
Precipitation  
Precipitation 0.01 in - - ()
Sea Level Pressure  
Sea Level Pressure 29.93 in    
Wind  
Wind Speed 3 mph (ESE)    
Max Wind Speed 8 mph    
Max Gust Speed -    
Visibility 7 miles    
Events Fog    
Averages and records for this station are not official NWS values.
T = Trace of Precipitation, MM = Missing Value Source: NWS Daily Summary

Daily Weather History Graph

Daily Weather History Graph

Search for Another Location

Airport:

Trip Planner

Search our weather history database for the weather conditions in past years. The results will help you decide how hot, cold, wet, or windy it might be!

Date:

Astronomy

Sep. 30, 2013 Rise Set
Actual Time 7:03 AM CDT 6:52 PM CDT
Civil Twilight 6:37 AM CDT 7:18 PM CDT
Nautical Twilight 6:06 AM CDT 7:49 PM CDT
Astronomical Twilight 5:35 AM CDT 8:20 PM CDT
Moon 2:43 AM CDT (9/30) 4:21 PM CDT (9/30)
Length of Visible Light 12h 41m
Length of Day
11h 48m
Waning Crescent, 19% of the Moon is Illuminated
Sep 30
Waning Crescent
Oct 4
New
Oct 11
First Quarter
Oct 18
Full
Oct 26
Last Quarter

Hourly Weather History & Observations

Time (CDT) Temp. Dew Point Humidity Pressure Visibility Wind Dir Wind Speed Gust Speed Precip Events Conditions
12:53 AM 52.0 °F 48.9 °F 89% 29.95 in 10.0 mi Calm Calm - N/A   Clear
1:53 AM 51.1 °F 46.9 °F 86% 29.94 in 10.0 mi Calm Calm - 0.01 in   Clear
2:53 AM 50.0 °F 48.0 °F 93% 29.92 in 10.0 mi Calm Calm - N/A   Clear
3:28 AM 48.2 °F 46.4 °F 93% 29.95 in 2.0 mi Calm Calm - N/A   Clear
3:36 AM 48.2 °F 46.4 °F 93% 29.94 in 10.0 mi Calm Calm - N/A   Clear
3:53 AM 46.9 °F 46.0 °F 97% 29.91 in 10.0 mi ESE 3.5 mph - N/A   Clear
4:53 AM 48.9 °F 46.0 °F 90% 29.91 in 10.0 mi ESE 3.5 mph - N/A   Clear
5:53 AM 48.9 °F 46.0 °F 90% 29.94 in 10.0 mi Calm Calm - N/A   Partly Cloudy
6:19 AM 48.2 °F 46.4 °F 93% 29.97 in 10.0 mi Calm Calm - N/A   Mostly Cloudy
6:53 AM 51.1 °F 48.9 °F 92% 29.95 in 10.0 mi ESE 3.5 mph - N/A   Overcast
7:08 AM 51.8 °F 48.2 °F 88% 29.97 in 10.0 mi ESE 5.8 mph - N/A   Overcast
7:22 AM 51.8 °F 50.0 °F 94% 29.97 in 6.0 mi ESE 6.9 mph - N/A   Overcast
7:25 AM 51.8 °F 50.0 °F 94% 29.97 in 1.2 mi East 6.9 mph - N/A   Overcast
7:28 AM 51.8 °F 51.8 °F 100% 29.97 in 0.5 mi East 5.8 mph - N/A Fog Fog
7:35 AM 53.6 °F 51.8 °F 94% 29.97 in 0.2 mi East 4.6 mph - N/A Fog Fog
7:53 AM 54.0 °F 53.1 °F 97% 29.95 in 0.2 mi East 3.5 mph - N/A Fog Fog
8:00 AM 55.4 °F 53.6 °F 94% 29.98 in 0.2 mi ESE 3.5 mph - N/A Fog Fog
8:53 AM 55.9 °F 55.0 °F 97% 29.95 in 0.2 mi ESE 4.6 mph - N/A Fog Fog
9:12 AM 57.2 °F 55.4 °F 94% 29.97 in 0.5 mi ESE 4.6 mph - N/A Fog Fog
9:41 AM 59.0 °F 57.2 °F 94% 29.98 in 0.2 mi Calm Calm - N/A Fog Fog
9:46 AM 59.0 °F 57.2 °F 94% 29.98 in 1.0 mi Calm Calm - N/A   Overcast
9:53 AM 59.0 °F 57.9 °F 96% 29.95 in 1.0 mi Calm Calm - N/A   Overcast
10:31 AM 60.8 °F 60.8 °F 100% 29.97 in 2.0 mi SE 4.6 mph - N/A   Overcast
10:43 AM 62.6 °F 60.8 °F 94% 29.97 in 4.0 mi ESE 3.5 mph - N/A   Overcast
10:53 AM 62.1 °F 60.1 °F 93% 29.94 in 5.0 mi SSE 6.9 mph - N/A   Overcast
11:02 AM 62.6 °F 60.8 °F 94% 29.97 in 10.0 mi SSE 8.1 mph - N/A   Overcast
11:53 AM 64.0 °F 60.1 °F 87% 29.94 in 10.0 mi SSE 6.9 mph - N/A   Overcast
12:27 PM 64.4 °F 60.8 °F 88% 29.96 in 10.0 mi ESE 5.8 mph - N/A   Overcast
12:53 PM 66.0 °F 60.1 °F 81% 29.93 in 10.0 mi SE 5.8 mph - N/A   Overcast
1:32 PM 68.0 °F 60.8 °F 78% 29.93 in 10.0 mi SE 6.9 mph - N/A   Overcast
1:53 PM 69.1 °F 60.1 °F 73% 29.89 in 10.0 mi East 8.1 mph - N/A   Overcast
2:53 PM 73.0 °F 61.0 °F 66% 29.87 in 10.0 mi Variable 5.8 mph - N/A   Scattered Clouds
3:53 PM 75.0 °F 60.1 °F 60% 29.85 in 10.0 mi SSE 6.9 mph - N/A   Mostly Cloudy
4:53 PM 75.9 °F 60.1 °F 58% 29.84 in 10.0 mi Variable 5.8 mph - N/A   Partly Cloudy
5:53 PM 75.0 °F 62.1 °F 64% 29.84 in 10.0 mi ESE 4.6 mph - N/A   Overcast
6:53 PM 73.9 °F 59.0 °F 59% 29.85 in 10.0 mi South 3.5 mph - N/A   Clear
7:53 PM 69.1 °F 61.0 °F 75% 29.85 in 10.0 mi ESE 4.6 mph - N/A   Scattered Clouds
8:53 PM 64.0 °F 60.1 °F 87% 29.86 in 10.0 mi Calm Calm - N/A   Partly Cloudy
9:53 PM 64.9 °F 60.1 °F 84% 29.87 in 10.0 mi ESE 3.5 mph - N/A   Clear
10:53 PM 64.9 °F 61.0 °F 87% 29.88 in 10.0 mi East 3.5 mph - N/A   Clear
11:53 PM 66.0 °F 61.0 °F 84% 29.88 in 10.0 mi East 4.6 mph - N/A   Clear